Regional Weather Roundup
Issued by NWS Albany, NY

Home | Current Version | Previous Version | Text Only | Print | Product List | Glossary On
Versions: 1 2 3 4 5 6 7 8 9 10 11 12 13 14 15 16 17 18 19 20 21 22 23 24 25 26 27 28 29 30 31 32 33 34 35 36 37 38 39 40 41 42 43 44 45 46 47 48 49 50
000
ASUS41 KALY 082110
RWRALY

NEW YORK STATE HOURLY WEATHER ROUNDUP
NATIONAL WEATHER SERVICE ALBANY NY
400 PM EST THU DEC 08 2016

NOTE: "FAIR" INDICATES FEW OR NO CLOUDS BELOW 12,000 FEET WITH NO
SIGNIFICANT WEATHER AND/OR NO OBSTRUCTIONS TO VISIBILITY.

NYZ032-033-038>043-046>054-057>066-NYZ062>081-082-084-082200-
EAST


CITY           SKY/WX    TMP DP  RH WIND       PRES   REMARKS
ALBANY         PTCLDY    36  22  56 W13       29.86R WCI  27
GLENS FALLS    CLOUDY    39  21  48 VRB5      29.81S
POUGHKEEPSIE   PTCLDY    40  18  41 W10       29.87R WCI  33
NEWBURGH       PTCLDY    39  23  52 W14G23    29.88R WCI  31
MONTGOMERY     MOCLDY    41  21  44 NW12      29.87R
WHITE PLAINS   PTCLDY    39  20  46 W5        29.86S
ISLIP          CLOUDY    41  20  43 W10G21    29.88R
NEW YORK CITY  CLOUDY    44  18  35 W14G23    29.90R
CENTRAL PARK     N/A     45  18  33 MISG        N/A
$$

NYZ005>009-017-018-044>046-055-056-082200-
CENTRAL


CITY           SKY/WX    TMP DP  RH WIND       PRES   REMARKS
FULTON         CLOUDY    33  25  72 W17G25    29.90R WCI  22
SYRACUSE       CLOUDY    33  17  51 W17       29.90R WCI  22
ROME           LGT SNOW  30  29  96 W15G23    29.89R FOG     WCI  19
ELMIRA         CLOUDY    34  17  50 W13G26    29.92R WCI  25
BINGHAMTON     LGT SNOW  28  22  78 NW9       29.86R VSB 3/4 WCI  19
MONTICELLO     MOCLDY    34  21  60 W8        29.86R WCI  27
$$

NYZ026>034-041>043-087-082200-
NORTH


CITY           SKY/WX    TMP DP  RH WIND       PRES   REMARKS
WATERTOWN      CLOUDY    33  24  69 W16       29.85R WCI  23
FORT DRUM      NOT AVBL
OGDENSBURG     FAIR      35  24  63 W9G20     29.79S WCI  28
MASSENA        CLOUDY    35  22  58 SW15      29.78R WCI  25
SARANAC LAKE   LGT SNOW  28  21  75 W8        29.71R WCI  20
PLATTSBURGH    MOCLDY    35  23  61 VRB3      29.75S
$$

NYZ001>004-010>016-019>021-085-082200-
WEST


CITY           SKY/WX    TMP DP  RH WIND       PRES   REMARKS
NIAGARA FALLS  MOCLDY    30  17  58 W23       29.96S WCI  17
BUFFALO        FLURRIES  29  16  58 W16G25    29.96R WCI  17
DUNKIRK        LGT SNOW  30  22  72 W15G23    30.00R WCI  19
JAMESTOWN      CLOUDY    23  18  80 SW14G22   29.95R VSB 3/4 WCI  11
WELLSVILLE     FLURRIES  28  16  60 W13G25    29.90R WCI  17
ROCHESTER      CLOUDY    31  21  66 W17G26    29.94R WCI  19
PENN YAN       CLOUDY    30  21  69 W10       29.92R WCI  21
$$

             KEY
       WCI = WIND CHILL INDEX
       VSB = VISIBILITY
       HX  = HEAT INDEX
$$



USA.gov is the U.S. government's official web portal to all federal, state and local government web resources and services.